This is the latest recevied weather packets stored in our database for station/object IQ5KG. If no packets are shown the sender has not sent any weather packets the latest 10 day(s).
| Time | Temp. | Humidity | Pressure | Rain* | Wind** | Luminosity | Snow |
|---|---|---|---|---|---|---|---|
| 1777784567 | 11.11° C | 76% | 1021.1 hPa | 0 mm | - | - | - |
| 1777783668 | 11.11° C | 74% | 1021 hPa | 0 mm | - | - | - |
| 1777782767 | 10.56° C | 76% | 1021.1 hPa | 0 mm | - | - | - |
| 1777781867 | 10.56° C | 77% | 1021.2 hPa | 0 mm | - | - | - |
| 1777780968 | 10.56° C | 77% | 1020.7 hPa | 0 mm | - | - | - |
| 1777780066 | 10.56° C | 76% | 1020.9 hPa | 0 mm | - | - | - |
| 1777779166 | 10.56° C | 77% | 1020.7 hPa | 0 mm | - | - | - |
| 1777778267 | 10.56° C | 76% | 1020.9 hPa | 0 mm | - | - | - |
| 1777777367 | 11.11° C | 75% | 1020.6 hPa | 0 mm | - | - | - |
| 1777776467 | 11.67° C | 74% | 1020.9 hPa | 0 mm | - | - | - |
| 1777775566 | 11.67° C | 73% | 1021 hPa | 0 mm | - | - | - |
| 1777774666 | 12.22° C | 71% | 1020.9 hPa | 0 mm | - | - | - |
| 1777773767 | 12.22° C | 71% | 1020.9 hPa | 0 mm | - | - | - |
| 1777772867 | 12.22° C | 70% | 1020.8 hPa | 0 mm | - | - | - |
| 1777771966 | 12.78° C | 68% | 1020.7 hPa | 0 mm | - | - | - |
| 1777771065 | 13.33° C | 66% | 1020.7 hPa | 0 mm | - | - | - |
| 1777770166 | 13.33° C | 64% | 1021 hPa | 0 mm | - | - | - |
| 1777769265 | 13.33° C | 65% | 1020.9 hPa | 0 mm | - | - | - |
| 1777768366 | 13.33° C | 64% | 1021.1 hPa | 0 mm | - | - | - |
| 1777767464 | 13.33° C | 65% | 1021.3 hPa | 0 mm | - | - | - |
| 1777766563 | 13.33° C | 66% | 1021.2 hPa | 0 mm | - | - | - |
| 1777765665 | 13.33° C | 66% | 1021.4 hPa | 0 mm | - | - | - |
| 1777764763 | 13.33° C | 65% | 1021.4 hPa | 0 mm | - | - | - |
| 1777763863 | 13.89° C | 64% | 1021.5 hPa | 0 mm | - | - | - |
| 1777762963 | 13.89° C | 63% | 1021.7 hPa | 0 mm | - | - | - |
* Rain latest hour (hover to see other rain measurements)
** Current wind speed in m/s (hover to see current wind gust speed)